Year,Month,Day,Hour,Minute,Value (Times are PST for temperature in C)
2012,11,08,00,00,6.70
2012,11,08,00,01,6.70
2012,11,08,00,02,6.70
2012,11,08,00,03,6.70
2012,11,08,00,04,6.80
2012,11,08,00,05,6.80
2012,11,08,00,06,6.80
2012,11,08,00,07,6.80
2012,11,08,00,08,6.80
2012,11,08,00,09,6.80
2012,11,08,00,10,6.80
2012,11,08,00,11,6.70
2012,11,08,00,12,6.80
2012,11,08,00,13,6.70
2012,11,08,00,14,6.80
2012,11,08,00,15,6.80
2012,11,08,00,16,6.80
2012,11,08,00,17,6.80
2012,11,08,00,18,6.80
2012,11,08,00,19,6.80
2012,11,08,00,20,6.80
2012,11,08,00,21,6.80
2012,11,08,00,22,6.80
2012,11,08,00,23,6.80
2012,11,08,00,24,6.80
2012,11,08,00,25,6.80
2012,11,08,00,26,6.80
2012,11,08,00,27,6.80
2012,11,08,00,28,6.90
2012,11,08,00,29,6.90
2012,11,08,00,30,6.90
2012,11,08,00,31,6.90
2012,11,08,00,32,6.90
2012,11,08,00,33,6.90
2012,11,08,00,34,6.90
2012,11,08,00,35,7.00
2012,11,08,00,36,7.00
2012,11,08,00,37,7.00
2012,11,08,00,38,7.00
2012,11,08,00,39,7.00
2012,11,08,00,40,7.00
2012,11,08,00,41,7.00
2012,11,08,00,42,7.00
2012,11,08,00,43,7.00
2012,11,08,00,44,7.00
2012,11,08,00,45,6.90
2012,11,08,00,46,7.00
2012,11,08,00,47,6.90
2012,11,08,00,48,6.90
2012,11,08,00,49,6.90
2012,11,08,00,50,6.90
2012,11,08,00,51,6.90
2012,11,08,00,52,6.90
2012,11,08,00,53,7.00
2012,11,08,00,54,7.00
2012,11,08,00,55,7.00
2012,11,08,00,56,7.00
2012,11,08,00,57,7.00
2012,11,08,00,58,7.00
2012,11,08,00,59,7.00
2012,11,08,01,00,7.00
2012,11,08,01,01,7.10
2012,11,08,01,02,7.10
2012,11,08,01,03,7.10
2012,11,08,01,04,7.10
2012,11,08,01,05,7.10
2012,11,08,01,06,7.10
2012,11,08,01,07,7.00
2012,11,08,01,08,7.00
2012,11,08,01,09,7.00
2012,11,08,01,10,7.00
2012,11,08,01,11,7.00
2012,11,08,01,12,7.00
2012,11,08,01,13,7.00
2012,11,08,01,14,7.00
2012,11,08,01,15,6.90
2012,11,08,01,16,6.90
2012,11,08,01,17,6.90
2012,11,08,01,18,6.90
2012,11,08,01,19,6.90
2012,11,08,01,20,6.90
2012,11,08,01,21,6.90
2012,11,08,01,22,6.90
2012,11,08,01,23,6.90
2012,11,08,01,24,6.90
2012,11,08,01,25,6.90
2012,11,08,01,26,6.90
2012,11,08,01,27,6.90
2012,11,08,01,28,7.00
2012,11,08,01,29,7.00
2012,11,08,01,30,7.00
2012,11,08,01,31,6.90
2012,11,08,01,32,6.90
2012,11,08,01,33,6.90
2012,11,08,01,34,6.90
2012,11,08,01,35,6.90
2012,11,08,01,36,6.90
2012,11,08,01,37,6.90
2012,11,08,01,38,6.90
2012,11,08,01,39,6.90
2012,11,08,01,40,6.90
2012,11,08,01,41,6.90
2012,11,08,01,42,6.90
2012,11,08,01,43,6.90
2012,11,08,01,44,6.90
2012,11,08,01,45,6.90
2012,11,08,01,46,6.90
2012,11,08,01,47,6.90
2012,11,08,01,48,6.90
2012,11,08,01,49,6.90
2012,11,08,01,50,6.90
2012,11,08,01,51,6.90
2012,11,08,01,52,6.90
2012,11,08,01,53,6.90
2012,11,08,01,54,6.90
2012,11,08,01,55,6.90
2012,11,08,01,56,6.90
2012,11,08,01,57,6.90
2012,11,08,01,58,6.80
2012,11,08,01,59,6.80
2012,11,08,02,00,6.80
2012,11,08,02,01,6.80
2012,11,08,02,02,6.80
2012,11,08,02,03,6.90
2012,11,08,02,04,6.80
2012,11,08,02,05,6.80
2012,11,08,02,06,6.90
2012,11,08,02,07,6.90
2012,11,08,02,08,6.90
2012,11,08,02,09,6.90
2012,11,08,02,10,6.90
2012,11,08,02,11,6.90
2012,11,08,02,12,6.90
2012,11,08,02,13,6.90
2012,11,08,02,14,6.90
2012,11,08,02,15,6.90
2012,11,08,02,16,6.90
2012,11,08,02,17,6.90
2012,11,08,02,18,6.90
2012,11,08,02,19,6.90
2012,11,08,02,20,6.90
2012,11,08,02,21,6.90
2012,11,08,02,22,6.90
2012,11,08,02,23,6.90
2012,11,08,02,24,6.90
2012,11,08,02,25,6.90
2012,11,08,02,26,6.90
2012,11,08,02,27,6.90
2012,11,08,02,28,7.00
2012,11,08,02,29,7.00
2012,11,08,02,30,7.00
2012,11,08,02,31,7.00
2012,11,08,02,32,7.00
2012,11,08,02,33,6.90
2012,11,08,02,34,6.90
2012,11,08,02,35,6.90
2012,11,08,02,36,6.90
2012,11,08,02,37,6.90
2012,11,08,02,38,6.90
2012,11,08,02,39,6.90
2012,11,08,02,40,6.90
2012,11,08,02,41,6.90
2012,11,08,02,42,6.90
2012,11,08,02,43,6.90
2012,11,08,02,44,6.90
2012,11,08,02,45,6.90
2012,11,08,02,46,6.90
2012,11,08,02,47,6.90
2012,11,08,02,48,6.90
2012,11,08,02,49,6.90
2012,11,08,02,50,6.90
2012,11,08,02,51,7.00
2012,11,08,02,52,6.90
2012,11,08,02,53,6.90
2012,11,08,02,54,6.90
2012,11,08,02,55,6.90
2012,11,08,02,56,6.90
2012,11,08,02,57,6.90
2012,11,08,02,58,6.90
2012,11,08,02,59,6.90
2012,11,08,03,00,6.90
2012,11,08,03,01,6.90
2012,11,08,03,02,6.90
2012,11,08,03,03,6.90
2012,11,08,03,04,6.90
2012,11,08,03,05,6.90
2012,11,08,03,06,6.90
2012,11,08,03,07,6.90
2012,11,08,03,08,6.90
2012,11,08,03,09,7.00
2012,11,08,03,10,7.00
2012,11,08,03,11,7.10
2012,11,08,03,12,7.10
2012,11,08,03,13,7.10
2012,11,08,03,14,7.10
2012,11,08,03,15,7.20
2012,11,08,03,16,7.20
2012,11,08,03,17,7.20
2012,11,08,03,18,7.20
2012,11,08,03,19,7.20
2012,11,08,03,20,7.20
2012,11,08,03,21,7.20
2012,11,08,03,22,7.20
2012,11,08,03,23,7.10
2012,11,08,03,24,7.10
2012,11,08,03,25,7.10
2012,11,08,03,26,7.10
2012,11,08,03,27,7.10
2012,11,08,03,28,7.00
2012,11,08,03,29,7.00
2012,11,08,03,30,7.00
2012,11,08,03,31,7.00
2012,11,08,03,32,6.90
2012,11,08,03,33,6.90
2012,11,08,03,34,6.90
2012,11,08,03,35,6.90
2012,11,08,03,36,6.90
2012,11,08,03,37,6.90
2012,11,08,03,38,6.90
2012,11,08,03,39,6.90
2012,11,08,03,40,6.90
2012,11,08,03,41,6.90
2012,11,08,03,42,6.80
2012,11,08,03,43,6.80
2012,11,08,03,44,6.80
2012,11,08,03,45,6.80
2012,11,08,03,46,6.80
2012,11,08,03,47,6.80
2012,11,08,03,48,6.80
2012,11,08,03,49,6.80
2012,11,08,03,50,6.80
2012,11,08,03,51,6.80
2012,11,08,03,52,6.80
2012,11,08,03,53,6.80
2012,11,08,03,54,6.80
2012,11,08,03,55,6.80
2012,11,08,03,56,6.80
2012,11,08,03,57,6.80
2012,11,08,03,58,6.80
2012,11,08,03,59,6.80
2012,11,08,04,00,6.80
2012,11,08,04,01,6.80
2012,11,08,04,02,6.80
2012,11,08,04,03,6.80
2012,11,08,04,04,6.80
2012,11,08,04,05,6.80
2012,11,08,04,06,6.80
2012,11,08,04,07,6.80
2012,11,08,04,08,6.80
2012,11,08,04,09,6.80
2012,11,08,04,10,6.80
2012,11,08,04,11,6.70
2012,11,08,04,12,6.70
2012,11,08,04,13,6.70
2012,11,08,04,14,6.70
2012,11,08,04,15,6.70
2012,11,08,04,16,6.70
2012,11,08,04,17,6.70
2012,11,08,04,18,6.70
2012,11,08,04,19,6.70
2012,11,08,04,20,6.70
2012,11,08,04,21,6.70
2012,11,08,04,22,6.70
2012,11,08,04,23,6.70
2012,11,08,04,24,6.70
2012,11,08,04,25,6.70
2012,11,08,04,26,6.70
2012,11,08,04,27,6.70
2012,11,08,04,28,6.70
2012,11,08,04,29,6.70
2012,11,08,04,30,6.70
2012,11,08,04,31,6.70
2012,11,08,04,32,6.70
2012,11,08,04,33,6.70
2012,11,08,04,34,6.80
2012,11,08,04,35,6.80
2012,11,08,04,36,6.80
2012,11,08,04,37,6.90
2012,11,08,04,38,6.90
2012,11,08,04,39,6.90
2012,11,08,04,40,7.00
2012,11,08,04,41,7.00
2012,11,08,04,42,7.10
2012,11,08,04,43,7.10
2012,11,08,04,44,7.10
2012,11,08,04,45,7.10
2012,11,08,04,46,7.20
2012,11,08,04,47,7.20
2012,11,08,04,48,7.20
2012,11,08,04,49,7.20
2012,11,08,04,50,7.20
2012,11,08,04,51,7.20
2012,11,08,04,52,7.20
2012,11,08,04,53,7.20
2012,11,08,04,54,7.30
2012,11,08,04,55,7.30
2012,11,08,04,56,7.30
2012,11,08,04,57,7.30
2012,11,08,04,58,7.30
2012,11,08,04,59,7.30
2012,11,08,05,00,7.30
2012,11,08,05,01,7.30
2012,11,08,05,02,7.30
2012,11,08,05,03,7.40
2012,11,08,05,04,7.40
2012,11,08,05,05,7.40
2012,11,08,05,06,7.40
2012,11,08,05,07,7.40
2012,11,08,05,08,7.40
2012,11,08,05,09,7.40
2012,11,08,05,10,7.40
2012,11,08,05,11,7.40
2012,11,08,05,12,7.50
2012,11,08,05,13,7.40
2012,11,08,05,14,7.40
2012,11,08,05,15,7.40
2012,11,08,05,16,7.40
2012,11,08,05,17,7.40
2012,11,08,05,18,7.40
2012,11,08,05,19,7.40
2012,11,08,05,20,7.40
2012,11,08,05,21,7.40
2012,11,08,05,22,7.30
2012,11,08,05,23,7.30
2012,11,08,05,24,7.30
2012,11,08,05,25,7.20
2012,11,08,05,26,7.20
2012,11,08,05,27,7.20
2012,11,08,05,28,7.10
2012,11,08,05,29,7.10
2012,11,08,05,30,7.00
2012,11,08,05,31,7.00
2012,11,08,05,32,6.90
2012,11,08,05,33,6.90
2012,11,08,05,34,6.90
2012,11,08,05,35,6.90
2012,11,08,05,36,6.80
2012,11,08,05,37,6.80
2012,11,08,05,38,6.80
2012,11,08,05,39,6.80
2012,11,08,05,40,6.80
2012,11,08,05,41,6.80
2012,11,08,05,42,6.80
2012,11,08,05,43,6.80
2012,11,08,05,44,6.80
2012,11,08,05,45,6.80
2012,11,08,05,46,6.70
2012,11,08,05,47,6.70
2012,11,08,05,48,6.70
2012,11,08,05,49,6.70
2012,11,08,05,50,6.70
2012,11,08,05,51,6.70
2012,11,08,05,52,6.70
2012,11,08,05,53,6.60
2012,11,08,05,54,6.60
2012,11,08,05,55,6.60
2012,11,08,05,56,6.60
2012,11,08,05,57,6.60
2012,11,08,05,58,6.50
2012,11,08,05,59,6.50
2012,11,08,06,00,6.50
2012,11,08,06,01,6.50
2012,11,08,06,02,6.50
2012,11,08,06,03,6.50
2012,11,08,06,04,6.40
2012,11,08,06,05,6.40
2012,11,08,06,06,6.40
2012,11,08,06,07,6.40
2012,11,08,06,08,6.40
2012,11,08,06,09,6.40
2012,11,08,06,10,6.40
2012,11,08,06,11,6.30
2012,11,08,06,12,6.30
2012,11,08,06,13,6.30
2012,11,08,06,14,6.30
2012,11,08,06,15,6.30
2012,11,08,06,16,6.30
2012,11,08,06,17,6.30
2012,11,08,06,18,6.30
2012,11,08,06,19,6.30
2012,11,08,06,20,6.30
2012,11,08,06,21,6.20
2012,11,08,06,22,6.20
2012,11,08,06,23,6.20
2012,11,08,06,24,6.20
2012,11,08,06,25,6.20
2012,11,08,06,26,6.20
2012,11,08,06,27,6.20
2012,11,08,06,28,6.10
2012,11,08,06,29,6.10
2012,11,08,06,30,6.10
2012,11,08,06,31,6.10
2012,11,08,06,32,6.10
2012,11,08,06,33,6.10
2012,11,08,06,34,6.00
2012,11,08,06,35,6.00
2012,11,08,06,36,5.90
2012,11,08,06,37,5.90
2012,11,08,06,38,5.90
2012,11,08,06,39,5.90
2012,11,08,06,40,5.80
2012,11,08,06,41,5.80
2012,11,08,06,42,5.80
2012,11,08,06,43,5.80
2012,11,08,06,44,5.70
2012,11,08,06,45,5.70
2012,11,08,06,46,5.70
2012,11,08,06,47,5.70
2012,11,08,06,48,5.70
2012,11,08,06,49,5.60
2012,11,08,06,50,5.60
2012,11,08,06,51,5.60
2012,11,08,06,52,5.60
2012,11,08,06,53,5.60
2012,11,08,06,54,5.50
2012,11,08,06,55,5.50
2012,11,08,06,56,5.50
2012,11,08,06,57,5.50
2012,11,08,06,58,5.50
2012,11,08,06,59,5.40
2012,11,08,07,00,5.40
2012,11,08,07,01,5.40
2012,11,08,07,02,5.40
2012,11,08,07,03,5.40
2012,11,08,07,04,5.40
2012,11,08,07,05,5.40
2012,11,08,07,06,5.40
2012,11,08,07,07,5.30
2012,11,08,07,08,5.30
2012,11,08,07,09,5.40
2012,11,08,07,10,5.40
2012,11,08,07,11,5.40
2012,11,08,07,12,5.40
2012,11,08,07,13,5.40
2012,11,08,07,14,5.30
2012,11,08,07,15,5.30
2012,11,08,07,16,5.30
2012,11,08,07,17,5.30
2012,11,08,07,18,5.30
2012,11,08,07,19,5.30
2012,11,08,07,20,5.30
2012,11,08,07,21,5.30
2012,11,08,07,22,5.30
2012,11,08,07,23,5.20
2012,11,08,07,24,5.30
2012,11,08,07,25,5.30
2012,11,08,07,26,5.30
2012,11,08,07,27,5.20
2012,11,08,07,28,5.20
2012,11,08,07,29,5.20
2012,11,08,07,30,5.20
2012,11,08,07,31,5.20
2012,11,08,07,32,5.20
2012,11,08,07,33,5.20
2012,11,08,07,34,5.20
2012,11,08,07,35,5.20
2012,11,08,07,36,5.20
2012,11,08,07,37,5.10
2012,11,08,07,38,5.10
2012,11,08,07,39,5.10
2012,11,08,07,40,5.10
2012,11,08,07,41,5.10
2012,11,08,07,42,5.10
2012,11,08,07,43,5.10
2012,11,08,07,44,5.10
2012,11,08,07,45,5.10
2012,11,08,07,46,5.10
2012,11,08,07,47,5.00
2012,11,08,07,48,5.00
2012,11,08,07,49,5.00
2012,11,08,07,50,4.90
2012,11,08,07,51,4.90
2012,11,08,07,52,4.90
2012,11,08,07,53,4.90
2012,11,08,07,54,4.90
2012,11,08,07,55,4.90
2012,11,08,07,56,4.90
2012,11,08,07,57,4.90
2012,11,08,07,58,4.90
2012,11,08,07,59,4.90
2012,11,08,08,00,4.90
2012,11,08,08,01,4.90
2012,11,08,08,02,4.90
2012,11,08,08,03,4.90
2012,11,08,08,04,4.90
2012,11,08,08,05,4.90
2012,11,08,08,06,5.00
2012,11,08,08,07,5.00
2012,11,08,08,08,5.10
2012,11,08,08,09,5.10
2012,11,08,08,10,5.10
2012,11,08,08,11,5.20
2012,11,08,08,12,5.20
2012,11,08,08,13,5.20
2012,11,08,08,14,5.20
2012,11,08,08,15,5.30
2012,11,08,08,16,5.30
2012,11,08,08,17,5.30
2012,11,08,08,18,5.40
2012,11,08,08,19,5.40
2012,11,08,08,20,5.50
2012,11,08,08,21,5.50
2012,11,08,08,22,5.50
2012,11,08,08,23,5.60
2012,11,08,08,24,5.60
2012,11,08,08,25,5.60
2012,11,08,08,26,5.70
2012,11,08,08,27,5.70
2012,11,08,08,28,5.70
2012,11,08,08,29,5.70
2012,11,08,08,30,5.70
2012,11,08,08,31,5.70
2012,11,08,08,32,5.70
2012,11,08,08,33,5.70
2012,11,08,08,34,5.70
2012,11,08,08,35,5.70
2012,11,08,08,36,5.60
2012,11,08,08,37,5.60
2012,11,08,08,38,5.60
2012,11,08,08,39,5.60
2012,11,08,08,40,5.60
2012,11,08,08,41,5.60
2012,11,08,08,42,5.60
2012,11,08,08,43,5.60
2012,11,08,08,44,5.50
2012,11,08,08,45,5.50
2012,11,08,08,46,5.50
2012,11,08,08,47,5.40
2012,11,08,08,48,5.40
2012,11,08,08,49,5.40
2012,11,08,08,50,5.30
2012,11,08,08,51,5.30
2012,11,08,08,52,5.30
2012,11,08,08,53,5.30
2012,11,08,08,54,5.30
2012,11,08,08,55,5.20
2012,11,08,08,56,5.20
2012,11,08,08,57,5.20
2012,11,08,08,58,5.20
2012,11,08,08,59,5.10
2012,11,08,09,00,5.10
2012,11,08,09,01,5.10
2012,11,08,09,02,5.10
2012,11,08,09,03,5.10
2012,11,08,09,04,5.10
2012,11,08,09,05,5.10
2012,11,08,09,06,5.10
2012,11,08,09,07,5.10
2012,11,08,09,08,5.10
2012,11,08,09,09,5.10
2012,11,08,09,10,5.10
2012,11,08,09,11,5.10
2012,11,08,09,12,5.10
2012,11,08,09,13,5.10
2012,11,08,09,14,5.10
2012,11,08,09,15,5.10
2012,11,08,09,16,5.20
2012,11,08,09,17,5.20
2012,11,08,09,18,5.20
2012,11,08,09,19,5.20
2012,11,08,09,20,5.30
2012,11,08,09,21,5.30
2012,11,08,09,22,5.30
2012,11,08,09,23,5.40
2012,11,08,09,24,5.40
2012,11,08,09,25,5.40
2012,11,08,09,26,5.50
2012,11,08,09,27,5.60
2012,11,08,09,28,5.60
2012,11,08,09,29,5.70
2012,11,08,09,30,5.70
2012,11,08,09,31,5.80
2012,11,08,09,32,5.80
2012,11,08,09,33,5.90
2012,11,08,09,34,5.90
2012,11,08,09,35,6.00
2012,11,08,09,36,6.10
2012,11,08,09,37,6.10
2012,11,08,09,38,6.10
2012,11,08,09,39,6.10
2012,11,08,09,40,6.10
2012,11,08,09,41,6.10
2012,11,08,09,42,6.10
2012,11,08,09,43,6.20
2012,11,08,09,44,6.20
2012,11,08,09,45,6.30
2012,11,08,09,46,6.30
2012,11,08,09,47,6.30
2012,11,08,09,48,6.40
2012,11,08,09,49,6.50
2012,11,08,09,50,6.50
2012,11,08,09,51,6.50
2012,11,08,09,52,6.50
2012,11,08,09,53,6.60
2012,11,08,09,54,6.60
2012,11,08,09,55,6.60
2012,11,08,09,56,6.60
2012,11,08,09,57,6.60
2012,11,08,09,58,6.70
2012,11,08,09,59,6.70
2012,11,08,10,00,6.70
2012,11,08,10,01,6.70
2012,11,08,10,02,6.70
2012,11,08,10,03,6.70
2012,11,08,10,04,6.80
2012,11,08,10,05,6.80
2012,11,08,10,06,6.90
2012,11,08,10,07,7.00
2012,11,08,10,08,7.10
2012,11,08,10,09,7.20
2012,11,08,10,10,7.40
2012,11,08,10,11,7.50
2012,11,08,10,12,7.60
2012,11,08,10,13,7.60
2012,11,08,10,14,7.70
2012,11,08,10,15,7.70
2012,11,08,10,16,7.70
2012,11,08,10,17,7.80
2012,11,08,10,18,7.80
2012,11,08,10,19,7.90
2012,11,08,10,20,8.00
2012,11,08,10,21,8.10
2012,11,08,10,22,8.20
2012,11,08,10,23,8.30
2012,11,08,10,24,8.30
2012,11,08,10,25,8.40
2012,11,08,10,26,8.40
2012,11,08,10,27,8.40
2012,11,08,10,28,8.40
2012,11,08,10,29,8.40
2012,11,08,10,30,8.50
2012,11,08,10,31,8.50
2012,11,08,10,32,8.60
2012,11,08,10,33,8.60
2012,11,08,10,34,8.60
2012,11,08,10,35,8.60
2012,11,08,10,36,8.60
2012,11,08,10,37,8.60
2012,11,08,10,38,8.60
2012,11,08,10,39,8.60
2012,11,08,10,40,8.60
2012,11,08,10,41,8.60
2012,11,08,10,42,8.70
2012,11,08,10,43,8.70
2012,11,08,10,44,8.70
2012,11,08,10,45,8.70
2012,11,08,10,46,8.70
2012,11,08,10,47,8.70
2012,11,08,10,48,8.70
2012,11,08,10,49,8.70
2012,11,08,10,50,8.70
2012,11,08,10,51,8.80
2012,11,08,10,52,8.80
2012,11,08,10,53,8.90
2012,11,08,10,54,9.00
2012,11,08,10,55,9.10
2012,11,08,10,56,9.20
2012,11,08,10,57,9.30
2012,11,08,10,58,9.40
2012,11,08,10,59,9.50
2012,11,08,11,00,9.60
2012,11,08,11,01,9.70
2012,11,08,11,02,9.70
2012,11,08,11,03,9.70
2012,11,08,11,04,9.70
2012,11,08,11,05,9.70
2012,11,08,11,06,9.70
2012,11,08,11,07,9.70
2012,11,08,11,08,9.70
2012,11,08,11,09,9.70
2012,11,08,11,10,9.70
2012,11,08,11,11,9.80
2012,11,08,11,12,9.80
2012,11,08,11,13,9.80
2012,11,08,11,14,9.90
2012,11,08,11,15,9.90
2012,11,08,11,16,9.90
2012,11,08,11,17,9.90
2012,11,08,11,18,9.90
2012,11,08,11,19,9.80
2012,11,08,11,20,9.80
2012,11,08,11,21,9.80
2012,11,08,11,22,9.90
2012,11,08,11,23,9.90
2012,11,08,11,24,9.90
2012,11,08,11,25,9.90
2012,11,08,11,26,10.00
2012,11,08,11,27,10.00
2012,11,08,11,28,10.00
2012,11,08,11,29,10.00
2012,11,08,11,30,10.00
2012,11,08,11,31,10.10
2012,11,08,11,32,10.10
2012,11,08,11,33,10.10
2012,11,08,11,34,10.10
2012,11,08,11,35,10.20
2012,11,08,11,36,10.20
2012,11,08,11,37,10.20
2012,11,08,11,38,10.30
2012,11,08,11,39,10.30
2012,11,08,11,40,10.30
2012,11,08,11,41,10.40
2012,11,08,11,42,10.40
2012,11,08,11,43,10.40
2012,11,08,11,44,10.40
2012,11,08,11,45,10.40
2012,11,08,11,46,10.50
2012,11,08,11,47,10.50
2012,11,08,11,48,10.60
2012,11,08,11,49,10.60
2012,11,08,11,50,10.60
2012,11,08,11,51,10.60
2012,11,08,11,52,10.70
2012,11,08,11,53,10.70
2012,11,08,11,54,10.70
2012,11,08,11,55,10.70
2012,11,08,11,56,10.80
2012,11,08,11,57,10.80
2012,11,08,11,58,10.80
2012,11,08,11,59,10.80
2012,11,08,12,00,10.80
2012,11,08,12,01,10.80
2012,11,08,12,02,10.80
2012,11,08,12,03,10.80
2012,11,08,12,04,10.80
2012,11,08,12,05,10.80
2012,11,08,12,06,10.80
2012,11,08,12,07,10.80
2012,11,08,12,08,10.80
2012,11,08,12,09,10.80
2012,11,08,12,10,10.80
2012,11,08,12,11,10.80
2012,11,08,12,12,10.80
2012,11,08,12,13,10.80
2012,11,08,12,14,10.80
2012,11,08,12,15,10.80
2012,11,08,12,16,10.80
2012,11,08,12,17,10.80
2012,11,08,12,18,10.80
2012,11,08,12,19,10.90
2012,11,08,12,20,10.90
2012,11,08,12,21,10.90
2012,11,08,12,22,10.90
2012,11,08,12,23,10.90
2012,11,08,12,24,11.00
2012,11,08,12,25,11.00
2012,11,08,12,26,11.10
2012,11,08,12,27,11.10
2012,11,08,12,28,11.10
2012,11,08,12,29,11.10
2012,11,08,12,30,11.10
2012,11,08,12,31,11.10
2012,11,08,12,32,11.10
2012,11,08,12,33,11.10
2012,11,08,12,34,11.10
2012,11,08,12,35,11.20
2012,11,08,12,36,11.20
2012,11,08,12,37,11.20
2012,11,08,12,38,11.20
2012,11,08,12,39,11.30
2012,11,08,12,40,11.30
2012,11,08,12,41,11.30
2012,11,08,12,42,11.40
2012,11,08,12,43,11.30
2012,11,08,12,44,11.30
2012,11,08,12,45,11.30
2012,11,08,12,46,11.30
2012,11,08,12,47,11.30
2012,11,08,12,48,11.30
2012,11,08,12,49,11.30
2012,11,08,12,50,11.30
2012,11,08,12,51,11.30
2012,11,08,12,52,11.30
2012,11,08,12,53,11.30
2012,11,08,12,54,11.30
2012,11,08,12,55,11.30
2012,11,08,12,56,11.30
2012,11,08,12,57,11.30
2012,11,08,12,58,11.30
2012,11,08,12,59,11.30
2012,11,08,13,00,11.30
2012,11,08,13,01,11.20
2012,11,08,13,02,11.20
2012,11,08,13,03,11.20
2012,11,08,13,04,11.20
2012,11,08,13,05,11.20
2012,11,08,13,06,11.10
2012,11,08,13,07,11.10
2012,11,08,13,08,11.00
2012,11,08,13,09,11.00
2012,11,08,13,10,11.00
2012,11,08,13,11,11.00
2012,11,08,13,12,11.10
2012,11,08,13,13,11.10
2012,11,08,13,14,11.00
2012,11,08,13,15,11.00
2012,11,08,13,16,11.00
2012,11,08,13,17,10.90
2012,11,08,13,18,10.90
2012,11,08,13,19,10.90
2012,11,08,13,20,10.90
2012,11,08,13,21,11.00
2012,11,08,13,22,11.00
2012,11,08,13,23,11.10
2012,11,08,13,24,11.10
2012,11,08,13,25,11.10
2012,11,08,13,26,11.10
2012,11,08,13,27,11.10
2012,11,08,13,28,11.10
2012,11,08,13,29,11.10
2012,11,08,13,30,11.10
2012,11,08,13,31,11.10
2012,11,08,13,32,11.10
2012,11,08,13,33,11.10
2012,11,08,13,34,11.10
2012,11,08,13,35,11.10
2012,11,08,13,36,11.10
2012,11,08,13,37,11.10
2012,11,08,13,38,11.10
2012,11,08,13,39,11.10
2012,11,08,13,40,11.10
2012,11,08,13,41,11.10
2012,11,08,13,42,11.10
2012,11,08,13,43,11.10
2012,11,08,13,44,11.20
2012,11,08,13,45,11.20
2012,11,08,13,46,11.10
2012,11,08,13,47,11.10
2012,11,08,13,48,11.10
2012,11,08,13,49,11.10
2012,11,08,13,50,11.10
2012,11,08,13,51,11.10
2012,11,08,13,52,11.10
2012,11,08,13,53,11.10
2012,11,08,13,54,11.10
2012,11,08,13,55,11.00
2012,11,08,13,56,11.00
2012,11,08,13,57,11.00
2012,11,08,13,58,11.00
2012,11,08,13,59,11.10
2012,11,08,14,00,11.00
2012,11,08,14,01,11.00
2012,11,08,14,02,11.00
2012,11,08,14,03,11.00
2012,11,08,14,04,11.00
2012,11,08,14,05,11.00
2012,11,08,14,06,10.90
2012,11,08,14,07,10.90
2012,11,08,14,08,10.90
2012,11,08,14,09,10.90
2012,11,08,14,10,10.90
2012,11,08,14,11,10.90
2012,11,08,14,12,11.00
2012,11,08,14,13,10.90
2012,11,08,14,14,10.90
2012,11,08,14,15,10.90
2012,11,08,14,16,10.90
2012,11,08,14,17,10.80
2012,11,08,14,18,10.80
2012,11,08,14,19,10.80
2012,11,08,14,20,10.80
2012,11,08,14,21,10.80
2012,11,08,14,22,10.80
2012,11,08,14,23,10.90
2012,11,08,14,24,10.90
2012,11,08,14,25,10.90
2012,11,08,14,26,10.90
2012,11,08,14,27,10.80
2012,11,08,14,28,10.80
2012,11,08,14,29,10.80
2012,11,08,14,30,10.80
2012,11,08,14,31,10.80
2012,11,08,14,32,10.80
2012,11,08,14,33,10.80
2012,11,08,14,34,10.80
2012,11,08,14,35,10.80
2012,11,08,14,36,10.80
2012,11,08,14,37,10.80
2012,11,08,14,38,10.80
2012,11,08,14,39,10.80
2012,11,08,14,40,10.80
2012,11,08,14,41,10.80
2012,11,08,14,42,10.80
2012,11,08,14,43,10.70
2012,11,08,14,44,10.70
2012,11,08,14,45,10.70
2012,11,08,14,46,10.70
2012,11,08,14,47,10.60
2012,11,08,14,48,10.60
2012,11,08,14,49,10.60
2012,11,08,14,50,10.60
2012,11,08,14,51,10.60
2012,11,08,14,52,10.60
2012,11,08,14,53,10.60
2012,11,08,14,54,10.60
2012,11,08,14,55,10.60
2012,11,08,14,56,10.60
2012,11,08,14,57,10.60
2012,11,08,14,58,10.60
2012,11,08,14,59,10.60
2012,11,08,15,00,10.60
2012,11,08,15,01,10.60
2012,11,08,15,02,10.60
2012,11,08,15,03,10.60
2012,11,08,15,04,10.70
2012,11,08,15,05,10.70
2012,11,08,15,06,10.70
2012,11,08,15,07,10.70
2012,11,08,15,08,10.70
2012,11,08,15,09,10.70
2012,11,08,15,10,10.70
2012,11,08,15,11,10.70
2012,11,08,15,12,10.70
2012,11,08,15,13,10.70
2012,11,08,15,14,10.70
2012,11,08,15,15,10.60
2012,11,08,15,16,10.60
2012,11,08,15,17,10.70
2012,11,08,15,18,10.60
2012,11,08,15,19,10.60
2012,11,08,15,20,10.60
2012,11,08,15,21,10.60
2012,11,08,15,22,10.60
2012,11,08,15,23,10.60
2012,11,08,15,24,10.60
2012,11,08,15,25,10.60
2012,11,08,15,26,10.60
2012,11,08,15,27,10.60
2012,11,08,15,28,10.60
2012,11,08,15,29,10.60
2012,11,08,15,30,10.60
2012,11,08,15,31,10.60
2012,11,08,15,32,10.60
2012,11,08,15,33,10.60
2012,11,08,15,34,10.60
2012,11,08,15,35,10.60
2012,11,08,15,36,10.60
2012,11,08,15,37,10.60
2012,11,08,15,38,10.60
2012,11,08,15,39,10.60
2012,11,08,15,40,10.60
2012,11,08,15,41,10.60
2012,11,08,15,42,10.60
2012,11,08,15,43,10.60
2012,11,08,15,44,10.60
2012,11,08,15,45,10.60
2012,11,08,15,46,10.50
2012,11,08,15,47,10.50
2012,11,08,15,48,10.50
2012,11,08,15,49,10.50
2012,11,08,15,50,10.50
2012,11,08,15,51,10.50
2012,11,08,15,52,10.40
2012,11,08,15,53,10.40
2012,11,08,15,54,10.40
2012,11,08,15,55,10.40
2012,11,08,15,56,10.40
2012,11,08,15,57,10.40
2012,11,08,15,58,10.40
2012,11,08,15,59,10.30
2012,11,08,16,00,10.30
2012,11,08,16,01,10.30
2012,11,08,16,02,10.30
2012,11,08,16,03,10.30
2012,11,08,16,04,10.20
2012,11,08,16,05,10.20
2012,11,08,16,06,10.20
2012,11,08,16,07,10.20
2012,11,08,16,08,10.20
2012,11,08,16,09,10.20
2012,11,08,16,10,10.10
2012,11,08,16,11,10.10
2012,11,08,16,12,10.10
2012,11,08,16,13,10.10
2012,11,08,16,14,10.10
2012,11,08,16,15,10.00
2012,11,08,16,16,10.00
2012,11,08,16,17,10.00
2012,11,08,16,18,9.90
2012,11,08,16,19,9.90
2012,11,08,16,20,9.90
2012,11,08,16,21,9.90
2012,11,08,16,22,9.90
2012,11,08,16,23,9.80
2012,11,08,16,24,9.80
2012,11,08,16,25,9.80
2012,11,08,16,26,9.80
2012,11,08,16,27,9.70
2012,11,08,16,28,9.70
2012,11,08,16,29,9.70
2012,11,08,16,30,9.70
2012,11,08,16,31,9.60
2012,11,08,16,32,9.60
2012,11,08,16,33,9.60
2012,11,08,16,34,9.60
2012,11,08,16,35,9.50
2012,11,08,16,36,9.50
2012,11,08,16,37,9.50
2012,11,08,16,38,9.40
2012,11,08,16,39,9.40
2012,11,08,16,40,9.40
2012,11,08,16,41,9.30
2012,11,08,16,42,9.30
2012,11,08,16,43,9.30
2012,11,08,16,44,9.20
2012,11,08,16,45,9.20
2012,11,08,16,46,9.20
2012,11,08,16,47,9.10
2012,11,08,16,48,9.10
2012,11,08,16,49,9.10
2012,11,08,16,50,9.10
2012,11,08,16,51,9.00
2012,11,08,16,52,9.00
2012,11,08,16,53,8.90
2012,11,08,16,54,8.90
2012,11,08,16,55,8.90
2012,11,08,16,56,8.80
2012,11,08,16,57,8.80
2012,11,08,16,58,8.80
2012,11,08,16,59,8.70
2012,11,08,17,00,8.70
2012,11,08,17,01,8.60
2012,11,08,17,02,8.60
2012,11,08,17,03,8.60
2012,11,08,17,04,8.50
2012,11,08,17,05,8.50
2012,11,08,17,06,8.40
2012,11,08,17,07,8.40
2012,11,08,17,08,8.40
2012,11,08,17,09,8.30
2012,11,08,17,10,8.30
2012,11,08,17,11,8.30
2012,11,08,17,12,8.20
2012,11,08,17,13,8.20
2012,11,08,17,14,8.10
2012,11,08,17,15,8.10
2012,11,08,17,16,8.10
2012,11,08,17,17,8.00
2012,11,08,17,18,8.00
2012,11,08,17,19,7.90
2012,11,08,17,20,7.90
2012,11,08,17,21,7.80
2012,11,08,17,22,7.80
2012,11,08,17,23,7.70
2012,11,08,17,24,7.70
2012,11,08,17,25,7.60
2012,11,08,17,26,7.60
2012,11,08,17,27,7.50
2012,11,08,17,28,7.50
2012,11,08,17,29,7.40
2012,11,08,17,30,7.40
2012,11,08,17,31,7.30
2012,11,08,17,32,7.30
2012,11,08,17,33,7.20
2012,11,08,17,34,7.20
2012,11,08,17,35,7.10
2012,11,08,17,36,7.10
2012,11,08,17,37,7.00
2012,11,08,17,38,6.90
2012,11,08,17,39,6.90
2012,11,08,17,40,6.80
2012,11,08,17,41,6.70
2012,11,08,17,42,6.70
2012,11,08,17,43,6.60
2012,11,08,17,44,6.60
2012,11,08,17,45,6.50
2012,11,08,17,46,6.50
2012,11,08,17,47,6.40
2012,11,08,17,48,6.40
2012,11,08,17,49,6.30
2012,11,08,17,50,6.30
2012,11,08,17,51,6.30
2012,11,08,17,52,6.30
2012,11,08,17,53,6.20